725  
ASUS42 KKEY 020010  
RWRKEY  
 
FLORIDA REGIONAL WEATHER ROUNDUP FOR THE FLORIDA KEYS  
NATIONAL WEATHER SERVICE KEY WEST FLORIDA  
800 PM EDT WED JUL 01 2015  
   
..SOUTH FLORIDA AND THE KEYS
 
 
 
CITY SKY/WX TMP DP RH WIND PRES REMARKS
 
FORT MYERS CLOUDY 76 70 82 NE5 30.10F  
SW REGIONAL AP LGT RAIN 73 70 90 CALM 30.11S  
NAPLES LGT RAIN 76 73 91 N3 30.11F  
MIAMI PTCLDY 86 74 67 SE7 30.11R HX 94  
WEST KENDALL PTCLDY 83 72 69 MISG 30.11R  
HOMESTEAD PTCLDY 85 74 70 E3 30.10S HX 92  
MARATHON PTCLDY 87 75 67 E10 30.09S HX 96  
BOCA CHICA NAS MOCLDY 86 73 65 E13 30.09R HX 93  
KEY WEST INTL CLEAR 86 76 71 E9 30.09R HX 96  
   
..INTERNATIONAL WEATHER
 
 
 
CITY SKY/WX TMP DP RH WIND PRES REMARKS
 
NASSAU BAHAMAS MOCLDY 86 77 74 E7 30.12R HX 97  
CANCUN MEXICO PTCLDY 84 79 84 E7 29.99F HX 96  
COZUMEL MEXICO MOCLDY 73 73 100 CALM 29.99F  
 
ADJACENT COASTAL WATERS...  
 
STATION/POSITION TIME SKY/WX TEMP WIND PRES WAVE
 
AIR SEA DIR/SP/G HT/PER  
(UTC) (F) (DEG/KT/KT) (MB) (FT/S)  
PULASKI SHOAL LI 2300 85 100/ 11/ 12 1018.2S  
SAND KEY 2350 85 90/ 13/ 15 1018.5R  
SOMBRERO KEY 0000 85 80/ 12/ 13 1019.6R  
LONG KEY 0000 85 90 100/ 11/ 13 1019.8R  
MOLASSES REEF 0000 84 85 90/ 8/ 9 1019.2S  
FOWEY ROCKS NOT AVBL  
 

 
 
CLICK HERE TO GO TO PREVIOUS BULLETINS.

The Nexlab FL Page Main Text Page